This is the latest recevied weather packets stored in our database for station/object N7SWJ. If no packets are shown the sender has not sent any weather packets the latest 10 day(s).
| Time | Temp. | Humidity | Pressure | Rain* | Wind** | Luminosity | Snow |
|---|---|---|---|---|---|---|---|
| 1778216805 | 10.56° C | 90% | 1016.8 hPa | 0 mm | - | 0 W/m² | - |
| 1778216503 | 10.56° C | 89% | 1016.7 hPa | 0 mm | - | 0 W/m² | - |
| 1778216198 | 10.56° C | 88% | 1016.9 hPa | 0 mm | - | 0 W/m² | - |
| 1778215897 | 10.56° C | 88% | 1016.7 hPa | 0 mm | - | 0 W/m² | - |
| 1778215593 | 10.56° C | 87% | 1016.9 hPa | 0 mm | - | 0 W/m² | - |
| 1778215289 | 10.56° C | 85% | 1016.7 hPa | 0 mm | - | 0 W/m² | - |
| 1778214986 | 10.56° C | 84% | 1016.2 hPa | 0 mm | - | 0 W/m² | - |
| 1778214684 | 11.11° C | 83% | 1016.5 hPa | 1.78 mm | - | 0 W/m² | - |
| 1778214380 | 11.67° C | 80% | 1016.7 hPa | 3.05 mm | - | 0 W/m² | - |
| 1778214078 | 11.67° C | 77% | 1017.5 hPa | 1.27 mm | - | 0 W/m² | - |
| 1778213774 | 11.67° C | 81% | 1017.7 hPa | 0 mm | - | 0 W/m² | - |
| 1778213471 | 11.67° C | 80% | 1017.3 hPa | 0 mm | - | 0 W/m² | - |
| 1778213167 | 12.22° C | 77% | 1016.7 hPa | 4.83 mm | - | 0 W/m² | - |
| 1778212865 | 12.22° C | 73% | 1016.2 hPa | 4.32 mm | - | 0 W/m² | - |
| 1778212562 | 12.78° C | 71% | 1016.3 hPa | 1.27 mm | - | 0 W/m² | - |
| 1778212259 | 12.78° C | 65% | 1016.2 hPa | 0 mm | - | 0 W/m² | - |
| 1778211956 | 13.33° C | 65% | 1016.3 hPa | 0 mm | - | 0 W/m² | - |
| 1778211653 | 13.33° C | 63% | 1015.9 hPa | 0 mm | - | 0 W/m² | - |
| 1778211350 | 12.78° C | 72% | 1016.1 hPa | 0 mm | - | 0 W/m² | - |
| 1778211048 | 12.78° C | 69% | 1016.3 hPa | 1.78 mm | - | 0 W/m² | - |
| 1778210744 | 12.78° C | 74% | 1016 hPa | 1.78 mm | - | 0 W/m² | - |
| 1778210442 | 12.78° C | 72% | 1016.1 hPa | 0 mm | - | 0 W/m² | - |
| 1778210139 | 12.78° C | 71% | 1016.1 hPa | 0 mm | - | 0 W/m² | - |
| 1778209835 | 12.78° C | 69% | 1015.9 hPa | 0 mm | - | 0 W/m² | - |
| 1778209532 | 13.33° C | 64% | 1015.8 hPa | 0 mm | - | 0 W/m² | - |
* Rain latest hour (hover to see other rain measurements)
** Current wind speed in m/s (hover to see current wind gust speed)